Lastest Insider Transactions Of TEXAS PACIFIC LAND TRUST ( TPL )
SymbolCompany NameInsider NameTitleDateTransationSharePriceAmountFile Date
TPLTEXAS PACIFIC LAND TRUSTHORIZON KINETICS ASSET MANAGEMENT LLC 10% Owner2020-10-22Buy14479.176,7082020-10-23 12:28:12
TPLTEXAS PACIFIC LAND TRUSTHORIZON KINETICS ASSET MANAGEMENT LLC 10% Owner2020-10-21Buy14463.056,4832020-10-22 11:57:01
TPLTEXAS PACIFIC LAND TRUSTHORIZON KINETICS ASSET MANAGEMENT LLC 10% Owner2020-10-20Buy14469.986,5802020-10-21 12:19:36
TPLTEXAS PACIFIC LAND TRUSTHORIZON KINETICS ASSET MANAGEMENT LLC 10% Owner2020-10-19Buy14472.006,6082020-10-20 12:04:43
TPLTEXAS PACIFIC LAND TRUSTHORIZON KINETICS ASSET MANAGEMENT LLC 10% Owner2020-10-16Buy14469.426,5722020-10-19 11:48:51
TPLTEXAS PACIFIC LAND TRUSTHORIZON KINETICS ASSET MANAGEMENT LLC 10% Owner2020-10-15Buy14481.426,7402020-10-16 17:04:02
TPLTEXAS PACIFIC LAND TRUSTHORIZON KINETICS ASSET MANAGEMENT LLC 10% Owner2020-10-14Buy15465.016,9752020-10-15 11:09:38
TPLTEXAS PACIFIC LAND TRUSTHORIZON KINETICS ASSET MANAGEMENT LLC 10% Owner2020-10-13Buy14459.656,4352020-10-14 11:16:05
TPLTEXAS PACIFIC LAND TRUSTHORIZON KINETICS ASSET MANAGEMENT LLC 10% Owner2020-10-09Buy28469.3013,1402020-10-13 10:50:31
TPLTEXAS PACIFIC LAND TRUSTHORIZON KINETICS ASSET MANAGEMENT LLC 10% Owner2020-10-08Buy14484.736,7862020-10-09 11:31:18
TPLTEXAS PACIFIC LAND TRUSTHORIZON KINETICS ASSET MANAGEMENT LLC 10% Owner2020-10-07Buy14472.986,6222020-10-08 11:59:54
TPLTEXAS PACIFIC LAND TRUSTHORIZON KINETICS ASSET MANAGEMENT LLC 10% Owner2020-10-06Buy14460.226,4432020-10-07 11:39:36
TPLTEXAS PACIFIC LAND TRUSTHORIZON KINETICS ASSET MANAGEMENT LLC 10% Owner2020-10-05Buy14455.116,3722020-10-06 10:35:38
TPLTEXAS PACIFIC LAND TRUSTHORIZON KINETICS ASSET MANAGEMENT LLC 10% Owner2020-10-02Buy14448.106,2732020-10-05 11:15:38
TPLTEXAS PACIFIC LAND TRUSTHORIZON KINETICS ASSET MANAGEMENT LLC 10% Owner2020-10-01Buy14450.206,3032020-10-02 12:00:14
TPLTEXAS PACIFIC LAND TRUSTHORIZON KINETICS ASSET MANAGEMENT LLC 10% Owner2020-09-30Buy14451.566,3222020-10-01 14:03:22
TPLTEXAS PACIFIC LAND TRUSTHORIZON KINETICS ASSET MANAGEMENT LLC 10% Owner2020-09-29Buy14452.066,3292020-09-30 11:40:51
TPLRENN Fund, Inc.STAHL MURRAYPresident & CEO2020-09-28Buy6751.318852020-09-29 12:36:57
TPLTEXAS PACIFIC LAND TRUSTHORIZON KINETICS ASSET MANAGEMENT LLC 10% Owner2020-09-28Buy14461.486,4612020-09-29 12:19:58
TPLTEXAS PACIFIC LAND TRUSTHORIZON KINETICS ASSET MANAGEMENT LLC 10% Owner2020-09-25Buy14451.006,3142020-09-28 13:31:55
TPLTEXAS PACIFIC LAND TRUSTHORIZON KINETICS ASSET MANAGEMENT LLC 10% Owner2020-09-24Buy14457.026,3982020-09-25 11:32:06
TPLTEXAS PACIFIC LAND TRUSTHORIZON KINETICS ASSET MANAGEMENT LLC 10% Owner2020-09-23Buy14441.706,1842020-09-24 11:49:20
TPLTEXAS PACIFIC LAND TRUSTHORIZON KINETICS ASSET MANAGEMENT LLC 10% Owner2020-09-22Buy14461.006,4542020-09-23 11:42:12
TPLTEXAS PACIFIC LAND TRUSTHORIZON KINETICS ASSET MANAGEMENT LLC 10% Owner2020-09-21Buy14459.566,4342020-09-22 11:45:54
TPLTEXAS PACIFIC LAND TRUSTHORIZON KINETICS ASSET MANAGEMENT LLC 10% Owner2020-09-18Buy14457.996,4122020-09-21 11:44:24
TPLTEXAS PACIFIC LAND TRUSTHORIZON KINETICS ASSET MANAGEMENT LLC 10% Owner2020-09-17Buy14459.426,4322020-09-18 12:43:02
TPLTEXAS PACIFIC LAND TRUSTHORIZON KINETICS ASSET MANAGEMENT LLC 10% Owner2020-09-16Buy4458.561,8342020-09-17 13:42:26
TPLTEXAS PACIFIC LAND TRUSTHORIZON KINETICS ASSET MANAGEMENT LLC 10% Owner2020-09-10Buy5481.002,4052020-09-11 11:46:02
TPLTEXAS PACIFIC LAND TRUSTHORIZON KINETICS ASSET MANAGEMENT LLC 10% Owner2020-09-08Buy14494.036,9162020-09-09 16:31:08
TPLTEXAS PACIFIC LAND TRUSTHORIZON KINETICS ASSET MANAGEMENT LLC 10% Owner2020-09-04Buy14510.697,1502020-09-08 13:01:38
TPLTEXAS PACIFIC LAND TRUSTHORIZON KINETICS ASSET MANAGEMENT LLC 10% Owner2020-09-03Buy14527.327,3822020-09-04 11:55:32
TPLTEXAS PACIFIC LAND TRUSTHORIZON KINETICS ASSET MANAGEMENT LLC 10% Owner2020-09-02Buy14537.807,5292020-09-03 11:23:19
TPLTEXAS PACIFIC LAND TRUSTHORIZON KINETICS ASSET MANAGEMENT LLC 10% Owner2020-09-01Buy14536.727,5142020-09-02 11:19:48
TPLTEXAS PACIFIC LAND TRUSTHORIZON KINETICS ASSET MANAGEMENT LLC 10% Owner2020-08-31Buy12526.726,3212020-09-01 11:34:09
TPLTEXAS PACIFIC LAND TRUSTHORIZON KINETICS ASSET MANAGEMENT LLC 10% Owner2020-08-28Buy12531.596,3792020-08-31 12:36:55
TPLTEXAS PACIFIC LAND TRUSTHORIZON KINETICS ASSET MANAGEMENT LLC 10% Owner2020-08-27Buy12537.746,4532020-08-28 11:41:14
TPLTEXAS PACIFIC LAND TRUSTHORIZON KINETICS ASSET MANAGEMENT LLC 10% Owner2020-08-26Buy12542.786,5132020-08-27 12:08:07
TPLTEXAS PACIFIC LAND TRUSTHORIZON KINETICS ASSET MANAGEMENT LLC 10% Owner2020-08-25Buy44545.1423,9862020-08-26 12:36:56
TPLTEXAS PACIFIC LAND TRUSTHORIZON KINETICS ASSET MANAGEMENT LLC 10% Owner2020-08-24Buy12543.086,5172020-08-25 12:39:02
TPLTEXAS PACIFIC LAND TRUSTHORIZON KINETICS ASSET MANAGEMENT LLC 10% Owner2020-08-21Buy12552.516,6302020-08-24 12:40:54
TPLTEXAS PACIFIC LAND TRUSTHORIZON KINETICS ASSET MANAGEMENT LLC 10% Owner2020-08-20Buy12559.476,7142020-08-21 12:07:07
TPLTEXAS PACIFIC LAND TRUSTHORIZON KINETICS ASSET MANAGEMENT LLC 10% Owner2020-08-19Buy12572.116,8652020-08-20 12:23:59
TPLTEXAS PACIFIC LAND TRUSTHORIZON KINETICS ASSET MANAGEMENT LLC 10% Owner2020-08-18Buy12587.357,0482020-08-19 11:41:16
TPLTEXAS PACIFIC LAND TRUSTHORIZON KINETICS ASSET MANAGEMENT LLC 10% Owner2020-08-17Buy12596.747,1612020-08-18 14:34:58
TPLTEXAS PACIFIC LAND TRUSTHORIZON KINETICS ASSET MANAGEMENT LLC 10% Owner2020-08-14Buy12600.007,2002020-08-17 11:27:51
TPLTEXAS PACIFIC LAND TRUSTHORIZON KINETICS ASSET MANAGEMENT LLC 10% Owner2020-08-13Buy26588.9915,3142020-08-14 12:10:00
TPLTEXAS PACIFIC LAND TRUSTHORIZON KINETICS ASSET MANAGEMENT LLC 10% Owner2020-08-12Buy48590.0128,3202020-08-13 12:38:14
TPLTEXAS PACIFIC LAND TRUSTHORIZON KINETICS ASSET MANAGEMENT LLC 10% Owner2020-08-11Buy30588.2017,6462020-08-12 12:29:07
TPLTEXAS PACIFIC LAND TRUSTHORIZON KINETICS ASSET MANAGEMENT LLC 10% Owner2020-08-10Buy16599.009,5842020-08-11 11:54:02
TPLTEXAS PACIFIC LAND TRUSTHORIZON KINETICS ASSET MANAGEMENT LLC 10% Owner2020-08-07Buy8584.004,6722020-08-10 12:00:27
TPLTEXAS PACIFIC LAND TRUSTHORIZON KINETICS ASSET MANAGEMENT LLC 10% Owner2020-08-06Buy14576.908,0772020-08-07 11:43:28
TPLTEXAS PACIFIC LAND TRUSTHORIZON KINETICS ASSET MANAGEMENT LLC 10% Owner2020-08-05Buy16602.009,6322020-08-06 11:59:07
TPLTEXAS PACIFIC LAND TRUSTHORIZON KINETICS ASSET MANAGEMENT LLC 10% Owner2020-08-04Buy12564.406,7732020-08-05 10:55:06
TPLTEXAS PACIFIC LAND TRUSTHORIZON KINETICS ASSET MANAGEMENT LLC 10% Owner2020-08-03Buy12539.996,4802020-08-04 12:09:09
TPLTEXAS PACIFIC LAND TRUSTHORIZON KINETICS ASSET MANAGEMENT LLC 10% Owner2020-07-31Buy16532.998,5282020-08-03 12:20:21
TPLTEXAS PACIFIC LAND TRUSTHORIZON KINETICS ASSET MANAGEMENT LLC 10% Owner2020-07-30Buy12554.576,6552020-07-31 13:32:17
TPLTEXAS PACIFIC LAND TRUSTHORIZON KINETICS ASSET MANAGEMENT LLC 10% Owner2020-07-29Buy12562.006,7442020-07-30 14:06:39
TPLTEXAS PACIFIC LAND TRUSTHORIZON KINETICS ASSET MANAGEMENT LLC 10% Owner2020-07-28Buy12548.996,5882020-07-29 11:38:41
TPLTEXAS PACIFIC LAND TRUSTHORIZON KINETICS ASSET MANAGEMENT LLC 10% Owner2020-07-27Buy12555.006,6602020-07-28 12:35:35
TPLTEXAS PACIFIC LAND TRUSTHORIZON KINETICS ASSET MANAGEMENT LLC 10% Owner2020-07-24Buy12560.026,7202020-07-27 13:49:48
TPLTEXAS PACIFIC LAND TRUSTHORIZON KINETICS ASSET MANAGEMENT LLC 10% Owner2020-07-23Buy14568.807,9632020-07-24 11:16:22
TPLTEXAS PACIFIC LAND TRUSTHORIZON KINETICS ASSET MANAGEMENT LLC 10% Owner2020-07-22Buy12573.826,8862020-07-23 12:06:55
TPLTEXAS PACIFIC LAND TRUSTHORIZON KINETICS ASSET MANAGEMENT LLC 10% Owner2020-07-21Buy12582.006,9842020-07-22 11:21:40
TPLTEXAS PACIFIC LAND TRUSTHORIZON KINETICS ASSET MANAGEMENT LLC 10% Owner2020-07-20Buy172575.0198,9022020-07-21 11:26:57
TPLTEXAS PACIFIC LAND TRUSTHORIZON KINETICS ASSET MANAGEMENT LLC 10% Owner2020-07-17Buy172585.71100,7422020-07-20 11:33:35
TPLTEXAS PACIFIC LAND TRUSTHORIZON KINETICS ASSET MANAGEMENT LLC 10% Owner2020-07-16Buy172582.43100,1782020-07-17 11:42:55
TPLTEXAS PACIFIC LAND TRUSTHORIZON KINETICS ASSET MANAGEMENT LLC 10% Owner2020-07-15Buy172596.73102,6382020-07-16 11:18:11
TPLTEXAS PACIFIC LAND TRUSTHORIZON KINETICS ASSET MANAGEMENT LLC 10% Owner2020-07-14Buy172585.18100,6512020-07-15 11:14:11
TPLTEXAS PACIFIC LAND TRUSTHORIZON KINETICS ASSET MANAGEMENT LLC 10% Owner2020-07-13Buy172537.0292,3672020-07-14 10:45:45
TPLTEXAS PACIFIC LAND TRUSTHORIZON KINETICS ASSET MANAGEMENT LLC 10% Owner2020-07-10Buy172547.0094,0842020-07-13 12:01:32
TPLTEXAS PACIFIC LAND TRUSTHORIZON KINETICS ASSET MANAGEMENT LLC 10% Owner2020-07-09Buy178542.5996,5812020-07-10 10:55:47
TPLTEXAS PACIFIC LAND TRUSTHORIZON KINETICS ASSET MANAGEMENT LLC 10% Owner2020-07-08Buy172561.0196,4942020-07-09 11:02:13
TPLTEXAS PACIFIC LAND TRUSTHORIZON KINETICS ASSET MANAGEMENT LLC 10% Owner2020-07-07Buy172549.7694,5592020-07-08 12:19:09
TPLTEXAS PACIFIC LAND TRUSTHORIZON KINETICS ASSET MANAGEMENT LLC 10% Owner2020-07-06Buy236569.99134,5182020-07-07 11:19:36
TPLTEXAS PACIFIC LAND TRUSTHORIZON KINETICS ASSET MANAGEMENT LLC 10% Owner2020-07-02Buy236577.39136,2642020-07-06 10:25:26
TPLTEXAS PACIFIC LAND TRUSTHORIZON KINETICS ASSET MANAGEMENT LLC 10% Owner2020-07-01Buy236578.40136,5022020-07-02 16:20:19
TPLTEXAS PACIFIC LAND TRUSTHORIZON KINETICS ASSET MANAGEMENT LLC 10% Owner2020-06-30Buy236594.69140,3472020-07-01 12:03:53
TPLTEXAS PACIFIC LAND TRUSTHORIZON KINETICS ASSET MANAGEMENT LLC 10% Owner2020-06-29Buy236570.01134,5222020-06-30 12:19:18
TPLTEXAS PACIFIC LAND TRUSTHORIZON KINETICS ASSET MANAGEMENT LLC 10% Owner2020-06-26Buy236572.15135,0272020-06-29 10:42:39
TPLTEXAS PACIFIC LAND TRUSTHORIZON KINETICS ASSET MANAGEMENT LLC 10% Owner2020-06-25Buy232584.27135,5512020-06-26 12:29:20
TPLTEXAS PACIFIC LAND TRUSTHORIZON KINETICS ASSET MANAGEMENT LLC 10% Owner2020-06-24Buy236572.00134,9922020-06-25 11:39:09
TPLTEXAS PACIFIC LAND TRUSTHORIZON KINETICS ASSET MANAGEMENT LLC 10% Owner2020-06-23Buy236599.95141,5882020-06-24 11:27:27
TPLTEXAS PACIFIC LAND TRUSTHORIZON KINETICS ASSET MANAGEMENT LLC 10% Owner2020-06-22Buy236614.11144,9302020-06-23 11:44:08
TPLTEXAS PACIFIC LAND TRUSTHORIZON KINETICS ASSET MANAGEMENT LLC 10% Owner2020-06-19Buy936624.04584,1012020-06-22 11:17:52
TPLTEXAS PACIFIC LAND TRUSTHORIZON KINETICS ASSET MANAGEMENT LLC 10% Owner2020-06-18Buy236614.90145,1162020-06-19 11:56:21
TPLTEXAS PACIFIC LAND TRUSTHORIZON KINETICS ASSET MANAGEMENT LLC 10% Owner2020-06-17Buy236625.12147,5282020-06-18 11:48:51
TPLTEXAS PACIFIC LAND TRUSTHORIZON KINETICS ASSET MANAGEMENT LLC 10% Owner2020-06-16Buy236641.35151,3592020-06-17 12:05:59
TPLTEXAS PACIFIC LAND TRUSTHORIZON KINETICS ASSET MANAGEMENT LLC 10% Owner2020-06-15Buy236625.57147,6352020-06-16 17:33:36
TPLTEXAS PACIFIC LAND TRUSTHORIZON KINETICS ASSET MANAGEMENT LLC 10% Owner2020-06-12Buy238627.00149,2262020-06-16 17:14:36
TPLTEXAS PACIFIC LAND TRUSTHORIZON KINETICS ASSET MANAGEMENT LLC 10% Owner2020-06-12Buy238627.00149,2262020-06-15 16:52:13
TPLTEXAS PACIFIC LAND TRUSTHORIZON KINETICS ASSET MANAGEMENT LLC 10% Owner2020-05-15Buy5524.352,6222020-05-18 11:27:08
TPLTEXAS PACIFIC LAND TRUSTHORIZON KINETICS ASSET MANAGEMENT LLC 10% Owner2020-05-15Buy5524.352,6222020-05-18 11:27:08
TPLTEXAS PACIFIC LAND TRUSTHORIZON KINETICS ASSET MANAGEMENT LLC 10% Owner2020-05-15Buy5524.352,6222020-05-18 11:27:08
TPLTEXAS PACIFIC LAND TRUSTHORIZON KINETICS ASSET MANAGEMENT LLC 10% Owner2020-05-15Buy5524.352,6222020-05-18 11:27:08
TPLTEXAS PACIFIC LAND TRUSTHORIZON KINETICS ASSET MANAGEMENT LLC 10% Owner2020-05-15Buy5524.352,6222020-05-18 11:27:08
TPLTEXAS PACIFIC LAND TRUSTHORIZON KINETICS ASSET MANAGEMENT LLC 10% Owner2020-05-15Buy5524.352,6222020-05-18 11:27:08
TPLTEXAS PACIFIC LAND TRUSTHORIZON KINETICS ASSET MANAGEMENT LLC 10% Owner2020-05-15Buy5524.352,6222020-05-18 11:27:08
TPLTEXAS PACIFIC LAND TRUSTHORIZON KINETICS ASSET MANAGEMENT LLC 10% Owner2020-05-15Buy5524.352,6222020-05-18 11:27:08
TPLTEXAS PACIFIC LAND TRUSTHORIZON KINETICS ASSET MANAGEMENT LLC 10% Owner2020-05-15Buy5524.352,6222020-05-18 11:27:08
TPLTEXAS PACIFIC LAND TRUSTHORIZON KINETICS ASSET MANAGEMENT LLC 10% Owner2020-05-15Buy5524.352,6222020-05-18 11:27:08
TPLTEXAS PACIFIC LAND TRUSTHORIZON KINETICS ASSET MANAGEMENT LLC 10% Owner2020-05-13Buy414511.71211,8482020-05-14 12:32:53
TPLTEXAS PACIFIC LAND TRUSTHORIZON KINETICS ASSET MANAGEMENT LLC 10% Owner2020-05-12Buy463524.01242,6172020-05-13 11:50:02
TPLTEXAS PACIFIC LAND TRUSTHORIZON KINETICS ASSET MANAGEMENT LLC 10% Owner2020-05-11Buy288520.19149,8152020-05-12 11:49:28
TPLTEXAS PACIFIC LAND TRUSTHORIZON KINETICS ASSET MANAGEMENT LLC 10% Owner2020-05-11Buy288520.19149,8152020-05-12 11:49:28
TPLTEXAS PACIFIC LAND TRUSTHORIZON KINETICS ASSET MANAGEMENT LLC 10% Owner2020-05-11Buy288520.19149,8152020-05-12 11:49:28
TPLTEXAS PACIFIC LAND TRUSTHORIZON KINETICS ASSET MANAGEMENT LLC 10% Owner2020-05-11Buy288520.19149,8152020-05-12 11:49:28
TPLTEXAS PACIFIC LAND TRUSTHORIZON KINETICS ASSET MANAGEMENT LLC 10% Owner2020-05-11Buy288520.19149,8152020-05-12 11:49:28
TPLTEXAS PACIFIC LAND TRUSTHORIZON KINETICS ASSET MANAGEMENT LLC 10% Owner2020-05-11Buy288520.19149,8152020-05-12 11:49:28
TPLTEXAS PACIFIC LAND TRUSTHORIZON KINETICS ASSET MANAGEMENT LLC 10% Owner2020-05-11Buy288520.19149,8152020-05-12 11:49:28
TPLTEXAS PACIFIC LAND TRUSTHORIZON KINETICS ASSET MANAGEMENT LLC 10% Owner2020-05-11Buy288520.19149,8152020-05-12 11:49:28
TPLTEXAS PACIFIC LAND TRUSTHORIZON KINETICS ASSET MANAGEMENT LLC 10% Owner2020-05-11Buy288520.19149,8152020-05-12 11:49:28
TPLTEXAS PACIFIC LAND TRUSTHORIZON KINETICS ASSET MANAGEMENT LLC 10% Owner2020-05-11Buy288520.19149,8152020-05-12 11:49:28
TPLTEXAS PACIFIC LAND TRUSTHORIZON KINETICS ASSET MANAGEMENT LLC 10% Owner2020-05-08Buy176521.5591,7932020-05-11 11:54:27
TPLTEXAS PACIFIC LAND TRUSTHORIZON KINETICS ASSET MANAGEMENT LLC 10% Owner2020-05-08Buy176521.5591,7932020-05-11 11:54:27
TPLTEXAS PACIFIC LAND TRUSTHORIZON KINETICS ASSET MANAGEMENT LLC 10% Owner2020-05-08Buy176521.5591,7932020-05-11 11:54:27
TPLTEXAS PACIFIC LAND TRUSTHORIZON KINETICS ASSET MANAGEMENT LLC 10% Owner2020-05-08Buy176521.5591,7932020-05-11 11:54:27
TPLTEXAS PACIFIC LAND TRUSTHORIZON KINETICS ASSET MANAGEMENT LLC 10% Owner2020-05-08Buy176521.5591,7932020-05-11 11:54:27
TPLTEXAS PACIFIC LAND TRUSTHORIZON KINETICS ASSET MANAGEMENT LLC 10% Owner2020-05-07Buy8493.033,9442020-05-08 12:03:19
TPLTEXAS PACIFIC LAND TRUSTHORIZON KINETICS ASSET MANAGEMENT LLC 10% Owner2020-05-07Buy8493.033,9442020-05-08 12:03:19
TPLTEXAS PACIFIC LAND TRUSTHORIZON KINETICS ASSET MANAGEMENT LLC 10% Owner2020-04-08Buy1471.034712020-04-09 12:01:47
TPLTEXAS PACIFIC LAND TRUSTHORIZON KINETICS ASSET MANAGEMENT LLC 10% Owner2020-04-06Buy1475.034752020-04-07 11:13:47
TPLTEXAS PACIFIC LAND TRUSTHORIZON KINETICS ASSET MANAGEMENT LLC 10% Owner2020-04-03Buy3457.871,3742020-04-06 11:43:05
TPLTEXAS PACIFIC LAND TRUSTHORIZON KINETICS ASSET MANAGEMENT LLC 10% Owner2020-03-26Buy10370.013,7002020-03-30 14:52:57
TPLTEXAS PACIFIC LAND TRUSTHORIZON KINETICS ASSET MANAGEMENT LLC 10% Owner2020-03-16Buy481408.32196,4002020-03-30 14:21:47
TPLTEXAS PACIFIC LAND TRUSTHORIZON KINETICS ASSET MANAGEMENT LLC 10% Owner2020-03-24Buy8388.943,1122020-03-25 12:37:46
TPLTEXAS PACIFIC LAND TRUSTHORIZON KINETICS ASSET MANAGEMENT LLC 10% Owner2020-03-23Buy18308.345,5502020-03-24 11:17:49
TPLTEXAS PACIFIC LAND TRUSTHORIZON KINETICS ASSET MANAGEMENT LLC 10% Owner2020-03-20Buy29352.8610,2332020-03-23 12:13:49
TPLTEXAS PACIFIC LAND TRUSTHORIZON KINETICS ASSET MANAGEMENT LLC 10% Owner2020-03-19Buy28354.089,9142020-03-20 11:53:43
TPLTEXAS PACIFIC LAND TRUSTHORIZON KINETICS ASSET MANAGEMENT LLC 10% Owner2020-03-18Buy32310.949,9502020-03-19 11:17:41
TPLTEXAS PACIFIC LAND TRUSTHORIZON KINETICS ASSET MANAGEMENT LLC 10% Owner2020-03-17Buy11368.264,0512020-03-18 11:11:43
TPLTEXAS PACIFIC LAND TRUSTHORIZON KINETICS ASSET MANAGEMENT LLC 10% Owner2020-03-16Buy11410.014,5102020-03-17 11:49:05
TPLTEXAS PACIFIC LAND TRUSTHORIZON KINETICS ASSET MANAGEMENT LLC 10% Owner2020-03-13Buy11436.904,8062020-03-16 11:54:36
TPLTEXAS PACIFIC LAND TRUSTHORIZON KINETICS ASSET MANAGEMENT LLC 10% Owner2020-03-12Buy11410.014,5102020-03-13 11:55:08
TPLTEXAS PACIFIC LAND TRUSTHORIZON KINETICS ASSET MANAGEMENT LLC 10% Owner2020-03-11Buy8457.013,6562020-03-12 11:03:25
TPLTEXAS PACIFIC LAND TRUSTTESSLER ALLAN R 10% Owner2020-03-09Buy400498.00199,2002020-03-11 17:02:45
TPLTEXAS PACIFIC LAND TRUSTHORIZON KINETICS ASSET MANAGEMENT LLC 10% Owner2020-03-10Buy11527.005,7972020-03-11 15:01:29
TPLTEXAS PACIFIC LAND TRUSTHORIZON KINETICS ASSET MANAGEMENT LLC 10% Owner2020-03-09Buy8467.213,7382020-03-10 11:02:24
TPLTEXAS PACIFIC LAND TRUSTHORIZON KINETICS ASSET MANAGEMENT LLC 10% Owner2020-03-06Buy2622.001,2442020-03-09 14:28:05
TPLTEXAS PACIFIC LAND TRUSTHORIZON KINETICS ASSET MANAGEMENT LLC 10% Owner2020-03-05Buy1655.816562020-03-06 11:02:48
TPLTEXAS PACIFIC LAND TRUSTHORIZON KINETICS ASSET MANAGEMENT LLC 10% Owner2020-03-03Buy1671.086712020-03-04 10:57:09
TPLTEXAS PACIFIC LAND TRUSTHORIZON KINETICS ASSET MANAGEMENT LLC 10% Owner2020-03-02Buy1690.706912020-03-03 11:09:59
TPLTEXAS PACIFIC LAND TRUSTHORIZON KINETICS ASSET MANAGEMENT LLC 10% Owner2020-02-28Buy1695.806962020-03-02 11:48:52
TPLTEXAS PACIFIC LAND TRUSTHORIZON KINETICS ASSET MANAGEMENT LLC 10% Owner2020-02-27Buy1678.206782020-02-28 13:21:32
TPLTEXAS PACIFIC LAND TRUSTHORIZON KINETICS ASSET MANAGEMENT LLC 10% Owner2020-02-24Buy2754.001,5082020-02-25 12:41:50
TPLTEXAS PACIFIC LAND TRUSTHORIZON KINETICS ASSET MANAGEMENT LLC 10% Owner2020-02-19Buy8770.626,1652020-02-20 16:00:02
TPLTEXAS PACIFIC LAND TRUSTHORIZON KINETICS ASSET MANAGEMENT LLC 10% Owner2020-02-14Buy92770.0770,8462020-02-18 12:04:42
TPLTEXAS PACIFIC LAND TRUSTHORIZON KINETICS ASSET MANAGEMENT LLC 10% Owner2020-02-13Buy94783.5073,6492020-02-14 11:27:29
TPLTEXAS PACIFIC LAND TRUSTHORIZON KINETICS ASSET MANAGEMENT LLC 10% Owner2020-02-12Buy92787.7572,4732020-02-13 11:43:18
TPLTEXAS PACIFIC LAND TRUSTHORIZON KINETICS ASSET MANAGEMENT LLC 10% Owner2020-02-11Buy92782.1071,9532020-02-12 10:48:07
TPLTEXAS PACIFIC LAND TRUSTHORIZON KINETICS ASSET MANAGEMENT LLC 10% Owner2020-02-10Buy106777.4682,4112020-02-11 11:26:48
TPLTEXAS PACIFIC LAND TRUSTHORIZON KINETICS ASSET MANAGEMENT LLC 10% Owner2020-02-07Buy92802.1073,7932020-02-10 11:41:34
TPLTEXAS PACIFIC LAND TRUSTHORIZON KINETICS ASSET MANAGEMENT LLC 10% Owner2020-02-06Buy8803.976,4322020-02-07 10:50:01
TPLTEXAS PACIFIC LAND TRUSTHORIZON KINETICS ASSET MANAGEMENT LLC 10% Owner2020-02-05Buy135801.07108,1442020-02-06 10:58:16
TPLTEXAS PACIFIC LAND TRUSTHORIZON KINETICS ASSET MANAGEMENT LLC 10% Owner2020-02-04Buy135780.04105,3052020-02-05 11:39:31
TPLTEXAS PACIFIC LAND TRUSTHORIZON KINETICS ASSET MANAGEMENT LLC 10% Owner2020-02-03Buy135750.00101,2502020-02-04 12:07:28
TPLTEXAS PACIFIC LAND TRUSTHORIZON KINETICS ASSET MANAGEMENT LLC 10% Owner2020-01-31Buy135755.71102,0212020-02-03 11:49:24
TPLTEXAS PACIFIC LAND TRUSTHORIZON KINETICS ASSET MANAGEMENT LLC 10% Owner2020-01-30Buy135726.5098,0782020-01-31 09:42:53
TPLTEXAS PACIFIC LAND TRUSTHORIZON KINETICS ASSET MANAGEMENT LLC 10% Owner2020-01-29Buy203742.00150,6262020-01-30 11:21:19
TPLTEXAS PACIFIC LAND TRUSTHORIZON KINETICS ASSET MANAGEMENT LLC 10% Owner2020-01-28Buy135745.55100,6492020-01-29 12:09:03
TPLTEXAS PACIFIC LAND TRUSTHORIZON KINETICS ASSET MANAGEMENT LLC 10% Owner2020-01-27Buy137735.13100,7132020-01-28 11:14:46
TPLTEXAS PACIFIC LAND TRUSTHORIZON KINETICS ASSET MANAGEMENT LLC 10% Owner2020-01-24Buy135751.23101,4162020-01-27 11:11:07
TPLTEXAS PACIFIC LAND TRUSTHORIZON KINETICS ASSET MANAGEMENT LLC 10% Owner2020-01-23Buy135759.00102,4652020-01-24 11:49:25
TPLTEXAS PACIFIC LAND TRUSTHORIZON KINETICS ASSET MANAGEMENT LLC 10% Owner2020-01-22Buy139766.80106,5852020-01-23 09:47:32
TPLTEXAS PACIFIC LAND TRUSTHORIZON KINETICS ASSET MANAGEMENT LLC 10% Owner2020-01-21Buy135781.94105,5622020-01-22 11:35:36
TPLTEXAS PACIFIC LAND TRUSTHORIZON KINETICS ASSET MANAGEMENT LLC 10% Owner2020-01-17Buy142792.86112,5862020-01-21 12:55:48
TPLTEXAS PACIFIC LAND TRUSTHORIZON KINETICS ASSET MANAGEMENT LLC 10% Owner2020-01-16Buy150794.90119,2352020-01-17 11:33:23
TPLTEXAS PACIFIC LAND TRUSTHORIZON KINETICS ASSET MANAGEMENT LLC 10% Owner2020-01-15Buy150795.92119,3882020-01-16 11:21:53
TPLTEXAS PACIFIC LAND TRUSTHORIZON KINETICS ASSET MANAGEMENT LLC 10% Owner2020-01-14Buy150799.45119,9182020-01-15 11:38:13
TPLTEXAS PACIFIC LAND TRUSTHORIZON KINETICS ASSET MANAGEMENT LLC 10% Owner2020-01-13Buy150804.90120,7352020-01-14 11:51:53
TPLTEXAS PACIFIC LAND TRUSTHORIZON KINETICS ASSET MANAGEMENT LLC 10% Owner2020-01-10Buy150809.28121,3922020-01-13 11:24:57
TPLTEXAS PACIFIC LAND TRUSTHORIZON KINETICS ASSET MANAGEMENT LLC 10% Owner2020-01-09Buy150813.19121,9792020-01-10 11:34:17
TPLTEXAS PACIFIC LAND TRUSTHORIZON KINETICS ASSET MANAGEMENT LLC 10% Owner2020-01-08Buy150819.37122,9062020-01-09 12:02:33
TPLTEXAS PACIFIC LAND TRUSTHORIZON KINETICS ASSET MANAGEMENT LLC 10% Owner2020-01-07Buy10805.008,0502020-01-08 11:10:33
TPLTEXAS PACIFIC LAND TRUSTHORIZON KINETICS ASSET MANAGEMENT LLC 10% Owner2020-01-06Buy10803.508,0352020-01-07 11:15:03
TPLTEXAS PACIFIC LAND TRUSTHORIZON KINETICS ASSET MANAGEMENT LLC 10% Owner2020-01-03Buy10791.557,9162020-01-06 11:38:45
TPLTEXAS PACIFIC LAND TRUSTHORIZON KINETICS ASSET MANAGEMENT LLC 10% Owner2020-01-02Buy10784.507,8452020-01-03 11:27:38
TPLTEXAS PACIFIC LAND TRUSTHORIZON KINETICS ASSET MANAGEMENT LLC 10% Owner2019-12-31Buy8781.226,2502020-01-02 11:26:31
TPLTEXAS PACIFIC LAND TRUSTHORIZON KINETICS ASSET MANAGEMENT LLC 10% Owner2019-12-30Buy8788.346,3072019-12-31 11:42:54
TPLTEXAS PACIFIC LAND TRUSTHORIZON KINETICS ASSET MANAGEMENT LLC 10% Owner2019-12-27Buy8795.046,3602019-12-30 11:46:45
TPLTEXAS PACIFIC LAND TRUSTHORIZON KINETICS ASSET MANAGEMENT LLC 10% Owner2019-12-26Buy41785.2232,1942019-12-27 12:23:51
TPLTEXAS PACIFIC LAND TRUSTHORIZON KINETICS ASSET MANAGEMENT LLC 10% Owner2019-12-23Buy82790.3664,8092019-12-26 10:53:42
TPLTEXAS PACIFIC LAND TRUSTHORIZON KINETICS ASSET MANAGEMENT LLC 10% Owner2019-12-20Buy41765.9231,4032019-12-23 11:39:18
TPLTEXAS PACIFIC LAND TRUSTHORIZON KINETICS ASSET MANAGEMENT LLC 10% Owner2019-12-19Buy41732.0330,0132019-12-20 11:30:32
TPLTEXAS PACIFIC LAND TRUSTHORIZON KINETICS ASSET MANAGEMENT LLC 10% Owner2019-12-18Buy41708.1229,0332019-12-19 12:25:29
TPLTEXAS PACIFIC LAND TRUSTHORIZON KINETICS ASSET MANAGEMENT LLC 10% Owner2019-12-17Buy257702.99180,6682019-12-18 10:49:27
TPLTEXAS PACIFIC LAND TRUSTHORIZON KINETICS ASSET MANAGEMENT LLC 10% Owner2019-12-16Buy47695.0532,6672019-12-17 11:18:15
TPLTEXAS PACIFIC LAND TRUSTHORIZON KINETICS ASSET MANAGEMENT LLC 10% Owner2019-12-13Buy40683.8627,3542019-12-16 12:58:40
TPLTEXAS PACIFIC LAND TRUSTHORIZON KINETICS ASSET MANAGEMENT LLC 10% Owner2019-12-12Buy40688.0027,5202019-12-13 11:20:16
TPLTEXAS PACIFIC LAND TRUSTHORIZON KINETICS ASSET MANAGEMENT LLC 10% Owner2019-12-11Buy40675.0227,0012019-12-12 11:31:42
TPLTEXAS PACIFIC LAND TRUSTHORIZON KINETICS ASSET MANAGEMENT LLC 10% Owner2019-12-10Buy40672.1926,8882019-12-11 11:35:20
TPLTEXAS PACIFIC LAND TRUSTHORIZON KINETICS ASSET MANAGEMENT LLC 10% Owner2019-12-09Buy40668.9426,7582019-12-10 11:31:53
TPLTEXAS PACIFIC LAND TRUSTHORIZON KINETICS ASSET MANAGEMENT LLC 10% Owner2019-12-06Buy33667.5522,0292019-12-09 10:57:41
TPLTEXAS PACIFIC LAND TRUSTHORIZON KINETICS ASSET MANAGEMENT LLC 10% Owner2019-12-05Buy40666.4026,6562019-12-06 11:36:47
TPLTEXAS PACIFIC LAND TRUSTHORIZON KINETICS ASSET MANAGEMENT LLC 10% Owner2019-12-04Buy33666.6421,9992019-12-05 11:29:02
TPLTEXAS PACIFIC LAND TRUSTHORIZON KINETICS ASSET MANAGEMENT LLC 10% Owner2019-12-03Buy33645.6121,3052019-12-04 11:53:46
TPLTEXAS PACIFIC LAND TRUSTHORIZON KINETICS ASSET MANAGEMENT LLC 10% Owner2019-12-02Buy37650.0024,0502019-12-03 11:55:51
TPLTEXAS PACIFIC LAND TRUSTHORIZON KINETICS ASSET MANAGEMENT LLC 10% Owner2019-11-29Buy33674.9822,2742019-12-02 11:28:36
TPLTEXAS PACIFIC LAND TRUSTHORIZON KINETICS ASSET MANAGEMENT LLC 10% Owner2019-11-27Buy33675.9922,3082019-11-29 10:20:44
TPLTEXAS PACIFIC LAND TRUSTHORIZON KINETICS ASSET MANAGEMENT LLC 10% Owner2019-11-26Buy37667.2024,6862019-11-27 10:02:50
TPLTEXAS PACIFIC LAND TRUSTHORIZON KINETICS ASSET MANAGEMENT LLC 10% Owner2019-11-25Buy33676.0022,3082019-11-26 10:58:21